This demonstration page uses our WeatherBlox Daily Observations layout. Learn more.

Left ArrowRight Arrow

34.74481, -87.66753

Hourly Observations for April 19, 2017

Temp ( °F °C ) Dew Point ( °F °C ) Humidity (%) Winds ( mph kmh ) Pressure ( in mb ) Visibility ( mi km ) Precip ( " mm )
12:16 am 00:16 Clear with Mist and Fog 66 18.9 64 17.8 93 93 Calm 30.12 1020 2 3 0.00 0.00
12:26 am 00:26 Mostly Clear with Mist and Fog 66 18.9 64 17.8 93 93 Calm 30.12 1020 3 5 0.00 0.00
12:53 am 00:53 Mostly Cloudy with Mist and Fog 67 19.4 64 17.8 91 91 Calm 30.14 1021 6 10 0.00 0.00
1:53 am 01:53 Cloudy 66 18.9 63 17.2 90 90 Calm 30.13 1020 9 14 0.00 0.00
2:53 am 02:53 Mostly Cloudy 66 18.9 63 17.2 90 90 Calm 30.13 1020 9 14 0.00 0.00
3:53 am 03:53 Clear 65 18.3 62 16.7 90 90 ESE 5 7 30.14 1021 10 16 0.00 0.00
4:53 am 04:53 Mostly Cloudy 65 18.3 60 15.6 84 84 ESE 5 7 30.15 1021 10 16 0.00 0.00
5:53 am 05:53 Mostly Cloudy 64 17.8 59 15 84 84 SE 6 9 30.17 1022 10 16 0.00 0.00
6:53 am 06:53 Cloudy 65 18.3 59 15 81 81 SE 8 13 30.19 1022 10 16 0.00 0.00
7:53 am 07:53 Mostly Cloudy 67 19.4 61 16.1 81 81 SE 7 11 30.20 1023 10 16 0.00 0.00
8:53 am 08:53 Mostly Sunny 70 21.1 62 16.7 76 76 SSE 6 9 30.21 1023 10 16 0.00 0.00
9:53 am 09:53 Mostly Sunny 74 23.3 63 17.2 69 69 SSE 7 11 30.20 1023 10 16 0.00 0.00
10:53 am 10:53 Mostly Sunny 76 24.4 62 16.7 62 62 SSE 3 6 30.21 1023 10 16 0.00 0.00
11:53 am 11:53 Sunny 79 26.1 63 17.2 58 58 S 7 11 30.20 1023 10 16 0.00 0.00
12:53 pm 12:53 Mostly Sunny 82 27.8 62 16.7 51 51 SE 7 11 30.17 1022 10 16 0.00 0.00
1:53 pm 13:53 Sunny 82 27.8 60 15.6 47 47 SSW 5 7 30.15 1021 10 16 0.00 0.00
2:53 pm 14:53 Mostly Sunny 83 28.3 59 15 44 44 WSW 7 11 30.13 1020 10 16 0.00 0.00
3:53 pm 15:53 Partly Cloudy 84 28.9 58 14.4 41 41 S 8 13 30.12 1020 10 16 0.00 0.00
4:53 pm 16:53 Mostly Cloudy with Light Rain 78 25.6 62 16.7 58 58 E 8 13 30.11 1020 10 16 0.00 0.03
5:53 pm 17:53 Partly Cloudy 77 25 63 17.2 62 62 ESE 5 7 30.11 1020 10 16 0.00 0.03
6:53 pm 18:53 Mostly Sunny 77 25 64 17.8 64 64 E 3 6 30.11 1020 10 16 0.00 0.00
7:53 pm 19:53 Mostly Cloudy 73 22.8 64 17.8 74 74 SE 6 9 30.12 1020 10 16 0.00 0.00
8:53 pm 20:53 Clear 71 21.7 62 16.7 73 73 ESE 5 7 30.13 1020 10 16 0.00 0.00
9:53 pm 21:53 Partly Cloudy 67 19.4 62 16.7 84 84 Calm 30.14 1021 10 16 0.00 0.00
10:53 pm 22:53 Clear 65 18.3 61 16.1 87 87 SE 5 7 30.13 1020 10 16 0.00 0.00
11:53 pm 23:53 Clear 64 17.8 60 15.6 87 87 Calm 30.14 1021 10 16 0.00 0.00

Powered by AerisWeather